Logan, UT

9:13 PM MST on November 19, 2019 (GMT -0700)
Logan-Cache

Weather History for KLGU - October, 2019

Change the Weather History Date:

Monday, October 21, 2019

  Actual Average Record
Temperature  
Mean Temperature 44 °F -  
Max Temperature 52 °F 62 °F 78 °F (2003)
Min Temperature 37 °F 31 °F 19 °F (1976)
Degree Days  
Heating Degree Days 22    
Moisture  
Dew Point 31 °F    
Average Humidity 65    
Maximum Humidity 89    
Minimum Humidity 46    
Precipitation  
Precipitation 0.01 in - - ()
Sea Level Pressure  
Sea Level Pressure 30.20 in    
Wind  
Wind Speed 5 mph ()    
Max Wind Speed 13 mph    
Max Gust Speed -    
Visibility 10.0 miles    
Events Rain    
Averages and records for this station are not official NWS values.
T = Trace of Precipitation, MM = Missing Value Source: Averaged Metar Reports

Daily Weather History Graph

Daily Weather History Graph

Search for Another Location

Airport or City:

Astronomy

Oct. 21, 2019 Rise Set
Actual Time 7:46 AM MDT 6:37 PM MDT
Civil Twilight 7:18 AM MDT 7:05 PM MDT
Nautical Twilight 6:45 AM MDT 7:37 PM MDT
Astronomical Twilight 6:13 AM MDT 8:09 PM MDT
Moon No Moon Rise 3:10 PM MDT (10/21)
Length of Visible Light 11h 47m
Length of Day
10h 50m
Waning Gibbous, 47% of the Moon is Illuminated
Oct 21
Waning Gibbous
Oct 27
New
Nov 4
First Quarter
Nov 12
Full
Nov 19
Last Quarter

Hourly Weather History & Observations

Time (MDT) Temp. Windchill Dew Point Humidity Pressure Visibility Wind Dir Wind Speed Gust Speed Precip Events Conditions
12:51 AM 41.0 °F 34.3 °F 28.0 °F 60% 30.09 in 10.0 mi SE 11.5 mph - N/A   Overcast
1:51 AM 37.9 °F 32.7 °F 32.0 °F 79% 30.09 in 10.0 mi ENE 6.9 mph - 0.00 in   Overcast
2:51 AM 37.0 °F 31.0 °F 32.0 °F 82% 30.09 in 10.0 mi NNE 8.1 mph - 0.00 in   Overcast
3:51 AM 37.9 °F 32.7 °F 32.0 °F 79% 30.08 in 10.0 mi East 6.9 mph - 0.00 in Rain Light Rain
4:51 AM 37.9 °F 33.5 °F 32.0 °F 79% 30.07 in 10.0 mi East 5.8 mph - 0.01 in   Overcast
5:51 AM 37.0 °F - 32.0 °F 82% 30.09 in 10.0 mi Calm Calm - N/A   Overcast
6:51 AM 37.0 °F - 34.0 °F 89% 30.12 in 10.0 mi Calm Calm - N/A   Overcast
7:51 AM 39.9 °F 36.7 °F 32.0 °F 73% 30.14 in 10.0 mi South 4.6 mph - N/A   Overcast
8:51 AM 39.9 °F - 34.0 °F 79% 30.16 in 10.0 mi Calm Calm - N/A   Overcast
9:51 AM 44.1 °F - 33.1 °F 65% 30.19 in 10.0 mi Calm Calm - N/A   Overcast
10:51 AM 46.0 °F 41.0 °F 33.1 °F 61% 30.20 in 10.0 mi WNW 10.4 mph - N/A   Mostly Cloudy
11:51 AM 46.9 °F - 32.0 °F 56% 30.20 in 10.0 mi NW 12.7 mph - N/A   Overcast
12:51 PM 46.9 °F - 30.0 °F 52% 30.22 in 10.0 mi WNW 10.4 mph - N/A   Mostly Cloudy
1:51 PM 48.0 °F - 30.9 °F 52% 30.23 in 10.0 mi NNE 4.6 mph - N/A   Overcast
2:51 PM 48.0 °F - 30.0 °F 50% 30.22 in 10.0 mi East 5.8 mph - N/A   Overcast
3:51 PM 50.0 °F - 30.0 °F 46% 30.21 in 10.0 mi NNW 6.9 mph - N/A   Mostly Cloudy
4:51 PM 48.9 °F - 28.9 °F 46% 30.23 in 10.0 mi North 11.5 mph - N/A   Scattered Clouds
5:51 PM 48.0 °F - 30.0 °F 50% 30.25 in 10.0 mi NNW 8.1 mph - N/A   Clear
6:51 PM 42.1 °F 36.6 °F 32.0 °F 67% 30.27 in 10.0 mi North 9.2 mph - N/A   Clear
7:51 PM 42.1 °F - 30.0 °F 62% 30.29 in 10.0 mi Calm Calm - N/A   Scattered Clouds
8:51 PM 43.0 °F 40.3 °F 30.0 °F 60% 30.32 in 10.0 mi West 4.6 mph - N/A   Scattered Clouds
9:51 PM 42.1 °F 39.2 °F 32.0 °F 67% 30.32 in 10.0 mi ESE 4.6 mph - N/A   Scattered Clouds
10:51 PM 39.9 °F - 30.9 °F 70% 30.33 in 10.0 mi Calm Calm - N/A   Partly Cloudy
11:51 PM 43.0 °F - 32.0 °F 65% 30.33 in 10.0 mi Calm Calm - N/A   Overcast